Hourly Weather Roundup
Issued by NWS

Home | Current Version | Previous Version | Text Only | Print | Product List | Glossary On
Versions: 1 2 3 4 5 6 7 8 9 10 11 12 13 14 15 16 17 18 19 20 21 22 23 24 25 26 27 28 29 30 31 32 33 34 35 36 37 38 39 40 41 42 43 44 45 46 47 48 49 50
000
NZUS43 KILX 210310
HWRCRS

NWR Hourly Weather Roundup
National Weather Service Lincoln IL
900 PM CST MON FEB 20 2017


CITY           SKY/WX    TMP DP  RH WIND       PRES   REMARKS
Champaign      CLOUDY    59  49  69 SE13      29.96F
Lawrenceville  MOCLDY    56  46  69 SE5       30.01F
Peoria         CLOUDY    64  52  64 S9        29.91S
Springfield    MOCLDY    65  52  62 S16       29.92S
$$


CITY           SKY/WX    TMP DP  RH WIND       PRES   REMARKS
Bloomington    CLOUDY    60  51  72 S16       29.94F
Decatur        CLOUDY    64  50  60 S16       29.94S
Effingham      CLOUDY    61  53  74 SE8       29.99F
Flora          CLOUDY    60  51  72 SE8       29.99F
Galesburg      CLOUDY    64  56  75 W6        29.91S
Jacksonville   CLOUDY    66  54  64 S13G18    29.90S
Lacon          CLOUDY    63  51  64 S12       29.90S
La Salle       CLOUDY    60  49  68 S13       29.91R
Lincoln        MOCLDY    62  53  72 S7        29.92F
Litchfield     PTCLDY    63  53  69 SE12      29.94R

CITY           SKY/WX    TMP DP  RH WIND       PRES   REMARKS
Macomb         MOCLDY    62  54  75 W6        29.94R
Mattoon        CLOUDY    62  51  67 SE12      29.96F
Moline         LGT RAIN  61  56  83 W9        29.88F
Olney          CLOUDY    61  52  72 SE6       30.00S
Paris          CLOUDY    56  48  75 SE8       30.01F
Pontiac        CLOUDY    59  53  78 SE10      29.94F
Quincy         CLOUDY    61  59  93 CALM      29.90S
Rantoul        CLOUDY    60  50  70 SE12      29.96F
Robinson       CLOUDY    57  48  70 SE7       30.02F
Taylorville    CLOUDY    62  51  68 SE12      29.94S
Terre Haute    PTCLDY    56  45  66 SE7       30.01F
$$


CITY           SKY/WX    TMP DP  RH WIND       PRES   REMARKS
Burlington     LGT RAIN  60  59  96 S9        29.90R
Chicago        CLOUDY    60  45  57 S15       29.93F
Des Moines     CLOUDY    58  56  93 SW7       29.88R
Evansville     MOCLDY    58  47  66 E3        30.02F
Indianapolis   CLOUDY    55  47  74 SE10      30.04F
Kansas City    CLOUDY    59  52  77 SW8       29.90S
Milwaukee      CLOUDY    58  42  55 S20G30    29.91F
St Louis       CLOUDY    68  55  63 SE12      29.92S
$$





USA.gov is the U.S. government's official web portal to all federal, state and local government web resources and services.